Location: Unspecified
(29.9680°N, 0.0000°E)
Time: 15:46:15
(UTC+00:00)

A-11 Canister half - Pass Details

Date: 26 June 2019
Orbit: 1526 x 1683 km, 47.3° (Epoch: 21 August)

Event Time Altitude Azimuth Distance (km) Brightness Sun altitude
Rises 09:38:41 0° 310° (NW) 4,680 11.3 57.3°
Reaches altitude 10° 09:41:44 10° 313° (NW) 3,694 10.9 57.9°
Maximum altitude 09:51:02 74° 38° (NE) 1,585 10.6 59.9°
Drops below altitude 10° 10:00:27 10° 123° (ESE) 3,739 11.6 62.0°
Sets 10:03:34 0° 125° (SE) 4,740 11.9 62.6°
